• In Österreich
  • Länderverzeichnis
  • Für 7 Tage
  • Wassertemperatur
  • Satellitenkarten
  • Wetterkarte
  • News
  • Widgets
  • user-avatar
    Anmelden

    Stündliche Wetter La Massana

    Heute, 17 Dezember, Sonntag

    Zeit Temperatur Niederschläge Wind Luftdruck Luftfeuchtigkeit
    00:00 -10°C° 0 mm 3 m/S 610 mmHg 77%
    01:00 -10°C° 0 mm 3 m/S 610 mmHg 76%
    02:00 -10°C° 0 mm 3 m/S 610 mmHg 76%
    03:00 -11°C° 0 mm 4 m/S 610 mmHg 75%
    04:00 -10°C° 0 mm 3 m/S 611 mmHg 75%
    05:00 -12°C° 0 mm 3 m/S 611 mmHg 74%
    06:00 -12°C° 0 mm 4 m/S 611 mmHg 74%
    07:00 -11°C° 0 mm 4 m/S 611 mmHg 71%
    08:00 -9°C° 0 mm 3 m/S 612 mmHg 68%
    09:00 -8°C° 0 mm 3 m/S 613 mmHg 65%
    10:00 -8°C° 0 mm 4 m/S 613 mmHg 62%
    11:00 -5°C° 0 mm 4 m/S 614 mmHg 59%
    12:00 -4°C° 0 mm 3 m/S 614 mmHg 61%
    13:00 -4°C° 0 mm 3 m/S 614 mmHg 62%
    14:00 -4°C° 0 mm 3 m/S 614 mmHg 64%
    15:00 -4°C° 0 mm 3 m/S 614 mmHg 65%
    16:00 -5°C° 0 mm 3 m/S 614 mmHg 69%
    17:00 -6°C° 0 mm 3 m/S 614 mmHg 73%
    18:00 -7°C° 0 mm 3 m/S 614 mmHg 77%
    19:00 -7°C° 0 mm 3 m/S 614 mmHg 78%
    20:00 -7°C° 0 mm 3 m/S 614 mmHg 79%
    21:00 -7°C° 0 mm 3 m/S 615 mmHg 80%
    22:00 -6°C° 0 mm 3 m/S 615 mmHg 80%
    23:00 -6°C° 0 mm 3 m/S 615 mmHg 81%

    Morgen, 18 Dezember, Montag

    Zeit Temperatur Niederschläge Wind Luftdruck Luftfeuchtigkeit
    00:00 -6°C° 0 mm 3 m/S 615 mmHg 81%
    01:00 -7°C° 0 mm 3 m/S 615 mmHg 82%
    02:00 -7°C° 0 mm 3 m/S 614 mmHg 83%
    03:00 -7°C° 0 mm 3 m/S 614 mmHg 83%
    04:00 -7°C° 0 mm 3 m/S 614 mmHg 83%
    05:00 -7°C° 0 mm 3 m/S 614 mmHg 82%
    06:00 -6°C° 0 mm 3 m/S 614 mmHg 81%
    07:00 -6°C° 0 mm 3 m/S 615 mmHg 79%
    08:00 -5°C° 0 mm 3 m/S 615 mmHg 77%
    09:00 -3°C° 0 mm 2 m/S 615 mmHg 75%
    10:00 -2°C° 0,2 mm 2 m/S 615 mmHg 75%
    11:00 -2°C° 0,2 mm 3 m/S 615 mmHg 76%
    12:00 -1°C° 0,2 mm 3 m/S 615 mmHg 76%
    13:00 -1°C° 0,9 mm 3 m/S 614 mmHg 78%
    14:00 -1°C° 0,9 mm 2 m/S 613 mmHg 81%
    15:00 -1°C° 0,9 mm 2 m/S 613 mmHg 83%
    16:00 -1°C° 1,1 mm 3 m/S 612 mmHg 85%
    17:00 -2°C° 1,1 mm 3 m/S 612 mmHg 87%
    18:00 -2°C° 1,1 mm 3 m/S 612 mmHg 89%
    19:00 -2°C° 0,8 mm 3 m/S 612 mmHg 90%
    20:00 -3°C° 0,8 mm 4 m/S 612 mmHg 90%
    21:00 -3°C° 0,8 mm 4 m/S 612 mmHg 90%
    22:00 -4°C° 0,2 mm 4 m/S 612 mmHg 91%
    23:00 -4°C° 0,2 mm 3 m/S 612 mmHg 91%

    übermorgen, 19 Dezember, Dienstag

    Zeit Temperatur Niederschläge Wind Luftdruck Luftfeuchtigkeit
    00:00 -5°C° 0,2 mm 3 m/S 612 mmHg 91%
    01:00 -6°C° 0 mm 3 m/S 612 mmHg 91%
    02:00 -7°C° 0 mm 3 m/S 612 mmHg 91%
    03:00 -7°C° 0 mm 3 m/S 612 mmHg 91%
    04:00 -8°C° 0 mm 3 m/S 612 mmHg 90%
    05:00 -9°C° 0 mm 3 m/S 612 mmHg 90%
    06:00 -9°C° 0 mm 3 m/S 613 mmHg 89%
    07:00 -8°C° 0 mm 2 m/S 613 mmHg 85%
    08:00 -7°C° 0 mm 2 m/S 614 mmHg 81%
    09:00 -6°C° 0 mm 2 m/S 615 mmHg 77%
    10:00 -5°C° 0 mm 2 m/S 615 mmHg 73%
    11:00 -3°C° 0 mm 2 m/S 616 mmHg 69%
    12:00 -2°C° 0 mm 2 m/S 617 mmHg 65%
    13:00 -2°C° 0 mm 2 m/S 617 mmHg 67%
    14:00 -2°C° 0 mm 2 m/S 616 mmHg 70%
    15:00 -3°C° 0 mm 2 m/S 616 mmHg 72%
    16:00 -4°C° 0 mm 2 m/S 616 mmHg 77%
    17:00 -6°C° 0 mm 2 m/S 615 mmHg 82%
    18:00 -8°C° 0 mm 2 m/S 615 mmHg 87%
    19:00 -8°C° 0 mm 2 m/S 615 mmHg 85%
    20:00 -8°C° 0 mm 2 m/S 615 mmHg 84%
    21:00 -8°C° 0 mm 2 m/S 616 mmHg 82%
    22:00 -8°C° 0 mm 2 m/S 616 mmHg 81%
    23:00 -8°C° 0 mm 2 m/S 616 mmHg 79%

    20 Dezember, Mittwoch

    Zeit Temperatur Niederschläge Wind Luftdruck Luftfeuchtigkeit
    00:00 -8°C° 0 mm 2 m/S 616 mmHg 77%
    01:00 -8°C° 0 mm 2 m/S 616 mmHg 75%
    02:00 -8°C° 0 mm 2 m/S 615 mmHg 73%
    03:00 -8°C° 0 mm 2 m/S 615 mmHg 71%
    04:00 -8°C° 0 mm 2 m/S 615 mmHg 70%
    05:00 -8°C° 0 mm 2 m/S 615 mmHg 70%
    06:00 -8°C° 0 mm 2 m/S 615 mmHg 70%
    07:00 -6°C° 0 mm 2 m/S 616 mmHg 68%
    08:00 -5°C° 0 mm 2 m/S 617 mmHg 67%
    09:00 -4°C° 0 mm 2 m/S 617 mmHg 66%
    10:00 -3°C° 0 mm 2 m/S 618 mmHg 66%
    11:00 -1°C° 0 mm 3 m/S 618 mmHg 65%
    12:00 0°C° 0 mm 3 m/S 619 mmHg 65%
    13:00 0°C° 0 mm 3 m/S 618 mmHg 67%
    14:00 0°C° 0 mm 3 m/S 618 mmHg 70%
    15:00 -1°C° 0 mm 3 m/S 618 mmHg 72%
    16:00 -2°C° 0 mm 3 m/S 618 mmHg 77%
    17:00 -4°C° 0 mm 3 m/S 617 mmHg 81%
    18:00 -5°C° 0 mm 2 m/S 617 mmHg 85%
    19:00 -6°C° 0 mm 3 m/S 617 mmHg 85%
    20:00 -6°C° 0 mm 3 m/S 618 mmHg 84%
    21:00 -6°C° 0 mm 3 m/S 618 mmHg 84%
    22:00 -5°C° 0 mm 2 m/S 618 mmHg 84%
    23:00 -5°C° 0 mm 2 m/S 618 mmHg 83%

    21 Dezember, Donnerstag

    Zeit Temperatur Niederschläge Wind Luftdruck Luftfeuchtigkeit
    00:00 -5°C° 0 mm 2 m/S 618 mmHg 83%
    01:00 -5°C° 0 mm 2 m/S 618 mmHg 83%
    02:00 -5°C° 0 mm 2 m/S 618 mmHg 83%
    03:00 -5°C° 0 mm 2 m/S 618 mmHg 83%
    04:00 -5°C° 0 mm 2 m/S 618 mmHg 82%
    05:00 -6°C° 0 mm 2 m/S 618 mmHg 81%
    06:00 -6°C° 0 mm 2 m/S 619 mmHg 81%
    07:00 -5°C° 0 mm 2 m/S 619 mmHg 78%
    08:00 -4°C° 0 mm 2 m/S 620 mmHg 75%
    09:00 -3°C° 0 mm 2 m/S 621 mmHg 72%
    10:00 -1°C° 0 mm 2 m/S 621 mmHg 71%
    11:00 +1°C° 0 mm 2 m/S 622 mmHg 70%
    12:00 +2°C° 0 mm 2 m/S 622 mmHg 69%
    13:00 +2°C° 0 mm 2 m/S 622 mmHg 70%
    14:00 +2°C° 0 mm 2 m/S 621 mmHg 71%
    15:00 +1°C° 0 mm 2 m/S 621 mmHg 72%
    16:00 -1°C° 0 mm 2 m/S 621 mmHg 75%
    17:00 -3°C° 0 mm 2 m/S 620 mmHg 77%
    18:00 -4°C° 0 mm 2 m/S 620 mmHg 80%
    19:00 -4°C° 0 mm 2 m/S 620 mmHg 78%
    20:00 -4°C° 0 mm 2 m/S 620 mmHg 77%
    21:00 -4°C° 0 mm 2 m/S 620 mmHg 76%
    22:00 -4°C° 0 mm 2 m/S 620 mmHg 76%
    23:00 -4°C° 0 mm 2 m/S 620 mmHg 76%

    22 Dezember, Freitag

    Zeit Temperatur Niederschläge Wind Luftdruck Luftfeuchtigkeit
    00:00 -4°C° 0 mm 2 m/S 620 mmHg 76%
    01:00 -4°C° 0 mm 2 m/S 620 mmHg 77%
    02:00 -4°C° 0 mm 2 m/S 620 mmHg 77%
    03:00 -5°C° 0 mm 3 m/S 619 mmHg 77%
    04:00 -5°C° 0 mm 3 m/S 619 mmHg 78%
    05:00 -5°C° 0 mm 3 m/S 619 mmHg 78%
    06:00 -5°C° 0 mm 3 m/S 619 mmHg 79%
    07:00 -4°C° 0 mm 3 m/S 620 mmHg 78%
    08:00 -2°C° 0 mm 3 m/S 620 mmHg 77%
    09:00 -1°C° 0 mm 3 m/S 620 mmHg 75%
    10:00 0°C° 0 mm 3 m/S 621 mmHg 74%
    11:00 +1°C° 0 mm 3 m/S 621 mmHg 73%
    12:00 +2°C° 0 mm 3 m/S 621 mmHg 72%
    13:00 +1°C° 0 mm 3 m/S 620 mmHg 73%
    14:00 +1°C° 0 mm 3 m/S 620 mmHg 73%
    15:00 0°C° 0 mm 3 m/S 619 mmHg 74%
    16:00 -1°C° 0 mm 3 m/S 619 mmHg 78%
    17:00 -4°C° 0 mm 3 m/S 618 mmHg 81%
    18:00 -5°C° 0 mm 3 m/S 618 mmHg 85%
    19:00 -5°C° 0 mm 3 m/S 618 mmHg 85%
    20:00 -5°C° 0 mm 3 m/S 617 mmHg 85%
    21:00 -6°C° 0 mm 3 m/S 617 mmHg 84%
    22:00 -6°C° 0 mm 3 m/S 617 mmHg 83%
    23:00 -6°C° 0 mm 3 m/S 617 mmHg 82%
    Mehr zeigen